Theta_e
344 346 347 345 344 344 344 345 345 346 346 346 346 345 344 346 347 346 345 343 341 341 340 340 341 340 339 337 336 338 336 333
340 343 346 345 343 342 343 343 343 344 344 344 342 343 344 345 345 345 345 343 342 342 341 340 339 338 337 335 335 338 335 334
338 340 342 343 344 344 344 345 344 343 344 342 338 339 340 342 342 343 344 341 341 339 337 335 335 334 335 335 336 336 336 335
335 337 338 341 345 343 340 343 342 340 340 339 337 336 337 340 340 341 341 338 337 335 332 331 331 332 333 335 336 334 335 334
335 336 336 338 340 341 341 340 339 338 338 337 336 336 336 336 336 333 330 332 330 331 327 327 329 332 332 332 331 331 332 331
335 335 335 334 336 338 339 339 337 337 336 336 334 333 333 333 330 326 325 324 324 323 324 326 329 332 331 329 329 328 327 328
336 336 335 335 334 334 336 335 337 335 335 336 335 333 329 327 324 323 322 323 322 321 326 329 330 328 327 326 324 323 324 324
337 336 336 337 335 333 335 335 334 334 334 335 335 329 325 323 322 322 320 320 320 321 324 328 325 324 321 322 321 320 320 320
337 337 337 337 334 334 335 334 333 332 331 332 329 326 324 322 320 318 318 317 317 319 322 325 322 321 319 319 319 318 318 317
339 340 337 334 333 332 330 329 328 327 327 328 327 324 322 321 320 318 318 317 319 321 324 321 318 316 314 314 315 316 317 317
338 334 332 329 327 326 325 326 327 327 327 326 325 324 323 321 320 318 317 317 316 321 320 318 315 313 311 310 310 311 313 315
334 331 328 328 327 326 326 326 325 326 324 323 324 323 322 320 317 315 316 316 315 316 314 314 314 312 310 307 308 308 309 309
329 329 327 327 326 325 325 324 324 323 322 321 320 321 320 316 314 313 314 314 313 313 309 307 307 306 305 307 306 307 305 304
328 326 327 327 327 322 322 324 321 319 319 317 317 315 315 314 312 311 312 312 312 312 311 309 307 306 305 303 301 302 302 302
325 325 325 322 321 323 320 318 317 314 313 312 312 313 312 311 310 309 309 310 309 308 309 309 308 306 307 306 301 299 300 298
326 324 324 322 324 324 323 319 314 310 309 311 310 311 310 310 309 308 307 307 307 306 307 306 306 305 306 311 313 309 305 300
325 324 324 324 325 325 321 315 314 313 310 308 308 308 308 309 308 307 307 307 306 307 304 304 303 303 302 301 301 303 305 306
324 324 325 325 325 324 319 316 314 312 307 307 307 307 306 307 308 307 306 306 306 304 303 302 302 301 301 300 300 299 299 300
323 325 324 325 324 324 322 320 316 313 310 309 307 306 305 305 307 306 306 307 306 305 303 302 301 300 299 299 300 300 300 299
323 324 324 324 324 324 324 321 318 313 311 310 310 309 307 306 307 307 308 308 307 306 303 302 301 300 300 300 300 301 300 299
Wind_Speed
9 10 9 10 10 11 11 12 11 10 10 9 8 8 8 8 6 6 5 5 4 3 3 1 1 8 4 6 6 3 4 3
9 9 10 8 7 10 11 11 10 9 9 8 8 7 6 6 6 5 4 3 4 3 3 3 4 4 8 14 10 8 1 5
6 8 9 9 7 8 10 11 10 9 8 7 6 4 4 4 3 3 3 3 3 5 5 3 5 3 7 12 6 2 3 2
6 6 6 8 7 7 6 6 4 4 4 5 4 4 3 3 2 3 5 7 5 4 3 5 6 3 3 7 4 7 5 3
7 7 6 7 5 5 3 3 4 3 5 4 4 3 2 1 2 2 3 3 2 3 3 3 4 2 1 3 5 7 3 2
7 7 7 6 4 5 5 5 4 4 4 5 4 3 3 2 2 3 3 2 4 4 3 4 5 8 5 6 6 3 1 2
10 9 8 7 7 4 4 4 5 4 4 5 4 3 3 2 3 3 2 2 3 3 3 3 6 6 6 7 6 6 6 3
11 10 9 8 6 7 5 4 5 4 4 4 5 4 4 3 3 2 2 1 2 2 3 4 5 5 6 6 6 5 6 5
13 11 10 10 7 6 5 4 4 4 3 5 5 5 4 5 4 2 2 2 3 3 3 5 5 5 7 6 5 6 5 5
13 10 9 7 6 5 4 4 4 4 4 4 6 6 6 5 3 1 2 2 3 3 3 5 5 4 4 5 5 6 6 6
13 11 10 8 7 5 5 6 5 4 5 5 6 6 5 4 3 3 2 3 4 5 4 3 4 4 5 4 4 4 5 4
10 9 11 10 7 6 5 5 4 4 5 4 6 4 4 4 4 4 3 4 4 4 4 3 2 4 5 4 3 2 3 4
12 14 11 10 7 6 4 5 3 5 5 5 4 4 5 5 4 4 3 4 5 5 4 5 2 3 3 2 2 3 4 3
10 11 12 8 6 3 3 4 4 3 4 4 4 6 6 5 5 4 4 5 5 5 5 3 2 4 3 2 1 0 1 0
12 12 12 8 8 7 6 6 4 2 3 3 3 5 5 6 5 5 5 4 3 3 3 4 3 3 3 3 1 2 1 1
12 13 10 8 9 6 11 5 5 4 3 3 4 6 6 6 6 5 5 4 4 2 2 2 2 2 0 1 1 2 2 2
9 10 9 9 8 7 6 5 3 4 4 6 5 4 4 4 5 5 5 3 4 5 3 4 2 3 2 1 2 1 1 2
10 11 9 9 9 8 7 9 8 7 5 4 4 3 4 5 5 5 4 4 5 4 4 4 3 3 2 2 3 2 1 1
10 11 11 10 10 9 9 10 10 9 9 6 6 4 3 6 6 5 4 4 5 5 4 3 4 2 4 2 1 1 2 1
12 12 11 11 10 10 9 9 6 5 7 5 5 5 5 6 6 6 6 6 5 5 3 3 3 3 4 3 2 1 1 1
Wind_Direction
148 161 161 156 150 152 154 156 159 160 162 157 149 144 146 138 136 130 134 116 102 81 81 81 84 123 84 34 335 350 319 321
158 161 164 157 159 157 156 159 162 161 161 162 143 149 148 144 155 144 134 137 118 97 22 355 347 6 110 75 337 303 301 307
167 162 166 157 157 164 156 163 160 156 165 160 135 140 142 172 168 161 149 119 120 126 93 24 33 4 22 72 11 348 354 348
170 160 156 154 163 152 150 162 148 154 160 152 142 153 159 178 184 119 120 136 147 111 106 15 338 329 339 44 50 32 12 6
174 166 154 156 151 153 147 145 147 153 166 153 148 144 163 176 150 113 96 93 291 326 351 1 3 342 13 61 57 52 324 347
162 175 162 160 141 160 165 160 158 162 167 158 154 163 175 140 137 115 116 77 46 26 11 358 1 31 47 72 77 141 313 20
172 176 170 168 155 160 167 167 168 155 159 173 160 164 156 133 116 109 92 49 47 29 33 47 45 43 32 42 47 29 20 354
176 176 170 169 168 169 176 167 158 152 167 173 163 143 134 131 122 122 61 23 53 91 32 72 63 60 51 46 54 46 34 359
174 172 166 176 166 160 169 166 143 153 143 145 140 122 124 127 133 138 119 109 90 141 96 81 79 57 53 39 33 34 37 20
165 166 167 152 147 141 129 126 109 111 126 122 122 121 127 127 137 129 132 133 115 121 105 81 72 70 61 28 23 27 26 14
162 147 144 123 107 99 96 100 107 113 112 111 112 120 128 134 126 113 116 103 89 120 93 77 93 78 69 52 30 29 23 26
140 132 126 117 111 106 95 102 98 94 86 98 110 122 127 119 106 114 112 100 90 91 96 70 85 107 104 87 69 45 33 33
146 141 139 135 133 126 117 121 118 111 105 110 125 122 121 128 115 99 105 105 119 124 108 116 122 165 107 41 38 60 51 20
135 141 142 138 130 98 109 121 77 78 101 109 130 122 135 134 131 131 131 115 119 158 155 153 126 179 158 154 88 171 198 73
149 150 146 129 119 118 100 90 88 101 128 132 133 138 139 137 143 141 128 117 145 147 152 157 149 198 240 135 102 260 291 339
157 150 146 142 148 140 158 153 157 172 154 140 146 160 148 150 150 148 135 137 151 145 125 119 104 140 353 229 197 155 232 324
152 140 137 147 152 149 152 126 116 130 132 150 157 156 149 164 161 155 161 158 152 149 143 127 116 128 134 58 18 4 300 243
148 144 148 155 153 161 156 148 146 147 146 164 161 164 172 185 175 176 168 168 167 162 150 143 133 118 129 150 169 178 190 109
153 155 160 162 165 170 168 167 163 168 165 167 161 167 191 204 182 174 178 187 185 154 146 149 155 154 172 186 143 180 108 113
161 167 165 171 174 181 178 170 169 171 170 165 179 191 190 178 190 184 186 182 183 169 153 160 157 167 164 154 170 167 123 120